Weather History for Dyersburg, TN

Change the Weather History Date:

Monday, March 5, 2012

  Actual Average Record
Temperature  
Mean Temperature 43 °F -  
Max Temperature 51 °F 52 °F 71 °F (2004)
Min Temperature 35 °F 36 °F 26 °F (2008)
Degree Days  
Heating Degree Days 22    
Moisture  
Dew Point 23 °F    
Average Humidity 43    
Maximum Humidity 56    
Minimum Humidity 30    
Precipitation  
Precipitation 0.00 in - - ()
Sea Level Pressure  
Sea Level Pressure 30.35 in    
Wind  
Wind Speed 12 mph (NNE)    
Max Wind Speed 18 mph    
Max Gust Speed 25 mph    
Visibility 10 miles    
Events      
Averages and records for this station are not official NWS values.
T = Trace of Precipitation, MM = Missing Value Source: NWS Daily Summary

Daily Weather History Graph

Daily Weather History Graph

Search for Another Location

Airport:

Trip Planner

Search our weather history database for the weather conditions in past years. The results will help you decide how hot, cold, wet, or windy it might be!

Date:

Astronomy

Mar. 05, 2012 Rise Set
Actual Time 6:21 AM CST 5:56 PM CST
Civil Twilight 5:56 AM CST 6:22 PM CST
Nautical Twilight 5:26 AM CST 6:52 PM CST
Astronomical Twilight 4:56 AM CST 7:21 PM CST
Moon 3:18 PM CST (3/5) 4:16 AM CST (3/5)
Length of Visible Light 12h 26m
Length of Day
11h 35m
Waxing Gibbous, 91% of the Moon is Illuminated
Mar 5
Waxing Gibbous
Mar 8
Full
Mar 14
Last Quarter
Mar 22
New
Mar 30
First Quarter

Hourly Weather History & Observations

Time (CST) Temp. Windchill Dew Point Humidity Pressure Visibility Wind Dir Wind Speed Gust Speed Precip Events Conditions
12:15 AM 48.2 °F - 26.6 °F 43% 30.05 in 10.0 mi NNW 18.4 mph 25.3 mph N/A   Clear
12:35 AM 48.2 °F - 26.6 °F 43% 30.07 in 10.0 mi NNW 12.7 mph 24.2 mph N/A   Clear
12:55 AM 46.4 °F 40.4 °F 26.6 °F 46% 30.08 in 10.0 mi NNW 13.8 mph 24.2 mph N/A   Clear
1:15 AM 46.4 °F 41.1 °F 26.6 °F 46% 30.09 in 10.0 mi NNW 11.5 mph 16.1 mph N/A   Clear
1:35 AM 46.4 °F 41.5 °F 26.6 °F 46% 30.11 in 10.0 mi NNW 10.4 mph 17.3 mph N/A   Clear
1:55 AM 46.4 °F 40.7 °F 26.6 °F 46% 30.12 in 10.0 mi NNW 12.7 mph 17.3 mph N/A   Clear
2:15 AM 46.4 °F 40.7 °F 26.6 °F 46% 30.14 in 10.0 mi NNW 12.7 mph - N/A   Clear
2:35 AM 44.6 °F 38.4 °F 26.6 °F 49% 30.16 in 10.0 mi NNW 12.7 mph 18.4 mph N/A   Clear
2:55 AM 44.6 °F 38.8 °F 26.6 °F 49% 30.17 in 10.0 mi North 11.5 mph - N/A   Clear
3:15 AM 44.6 °F 37.2 °F 24.8 °F 46% 30.18 in 10.0 mi NNW 17.3 mph 21.9 mph N/A   Clear
3:35 AM 44.6 °F 37.2 °F 24.8 °F 46% 30.20 in 10.0 mi North 17.3 mph 23.0 mph N/A   Clear
3:55 AM 42.8 °F 35.8 °F 24.8 °F 49% 30.22 in 10.0 mi North 13.8 mph 19.6 mph N/A   Clear
4:15 AM 41.0 °F 32.8 °F 24.8 °F 53% 30.24 in 10.0 mi North 16.1 mph - N/A   Clear
4:35 AM 39.2 °F 33.0 °F 23.0 °F 52% 30.26 in 10.0 mi North 9.2 mph - N/A   Clear
4:55 AM 39.2 °F 32.0 °F 21.2 °F 49% 30.28 in 10.0 mi North 11.5 mph 19.6 mph N/A   Clear
5:15 AM 39.2 °F 32.0 °F 21.2 °F 49% 30.30 in 10.0 mi North 11.5 mph - N/A   Clear
5:35 AM 37.4 °F 29.8 °F 21.2 °F 52% 30.32 in 10.0 mi North 11.5 mph - N/A   Clear
5:55 AM 37.4 °F 30.8 °F 21.2 °F 52% 30.33 in 10.0 mi North 9.2 mph - N/A   Clear
6:15 AM 37.4 °F 30.8 °F 21.2 °F 52% 30.34 in 10.0 mi North 9.2 mph 16.1 mph N/A   Clear
6:35 AM 35.6 °F 28.0 °F 21.2 °F 56% 30.35 in 10.0 mi North 10.4 mph - N/A   Clear
6:55 AM 35.6 °F 28.0 °F 21.2 °F 56% 30.37 in 10.0 mi North 10.4 mph - N/A   Clear
7:15 AM 37.4 °F 29.8 °F 21.2 °F 52% 30.38 in 10.0 mi North 11.5 mph 17.3 mph N/A   Clear
7:35 AM 37.4 °F 28.5 °F 21.2 °F 52% 30.39 in 10.0 mi North 15.0 mph - N/A   Clear
7:55 AM 37.4 °F 28.9 °F 21.2 °F 52% 30.40 in 10.0 mi North 13.8 mph 21.9 mph N/A   Clear
8:15 AM 39.2 °F 30.5 °F 21.2 °F 49% 30.41 in 10.0 mi North 16.1 mph 21.9 mph N/A   Clear
8:35 AM 39.2 °F 32.0 °F 23.0 °F 52% 30.43 in 10.0 mi NNE 11.5 mph 19.6 mph N/A   Clear
8:55 AM 41.0 °F 33.9 °F 21.2 °F 45% 30.44 in 10.0 mi NNE 12.7 mph - N/A   Clear
9:15 AM 42.8 °F 35.8 °F 23.0 °F 46% 30.44 in 10.0 mi NNE 13.8 mph - N/A   Clear
9:35 AM 42.8 °F 37.0 °F 23.0 °F 46% 30.45 in 10.0 mi NNE 10.4 mph - N/A   Clear
9:55 AM 42.8 °F 37.5 °F 24.8 °F 49% 30.46 in 10.0 mi ENE 9.2 mph - N/A   Clear
10:15 AM 44.6 °F 41.4 °F 23.0 °F 43% 30.47 in 10.0 mi North 5.8 mph - N/A   Clear
10:35 AM 44.6 °F 42.2 °F 24.8 °F 46% 30.48 in 10.0 mi ESE 4.6 mph - N/A   Clear
10:55 AM 44.6 °F 42.2 °F 24.8 °F 46% 30.48 in 10.0 mi East 4.6 mph - N/A   Clear
11:15 AM 46.4 °F 45.2 °F 24.8 °F 43% 30.48 in 10.0 mi East 3.5 mph - N/A   Clear
11:35 AM 46.4 °F 45.2 °F 24.8 °F 43% 30.48 in 10.0 mi NW 3.5 mph - N/A   Clear
11:55 AM 48.2 °F - 24.8 °F 40% 30.47 in 10.0 mi NNE 9.2 mph - N/A   Clear
12:15 PM 48.2 °F - 26.6 °F 43% 30.47 in 10.0 mi ENE 6.9 mph - N/A   Clear
12:35 PM 48.2 °F - 24.8 °F 40% 30.46 in 10.0 mi North 9.2 mph - N/A   Clear
12:55 PM 48.2 °F - 24.8 °F 40% 30.45 in 10.0 mi ESE 5.8 mph - N/A   Clear
1:15 PM 48.2 °F - 24.8 °F 40% 30.44 in 10.0 mi ENE 8.1 mph - N/A   Clear
1:35 PM 50.0 °F - 24.8 °F 37% 30.44 in 10.0 mi East 5.8 mph - N/A   Clear
1:55 PM 51.8 °F - 23.0 °F 33% 30.43 in 10.0 mi NE 6.9 mph - N/A   Clear
2:15 PM 50.0 °F - 21.2 °F 32% 30.43 in 10.0 mi Calm Calm - N/A   Clear
2:35 PM 51.8 °F - 23.0 °F 33% 30.42 in 10.0 mi ENE 10.4 mph - N/A   Clear
2:55 PM 51.8 °F - 23.0 °F 33% 30.42 in 10.0 mi East 8.1 mph - N/A   Clear
3:15 PM 51.8 °F - 24.8 °F 35% 30.41 in 10.0 mi SE 8.1 mph - N/A   Clear
3:35 PM 51.8 °F - 24.8 °F 35% 30.42 in 10.0 mi SE 9.2 mph - N/A   Clear
3:55 PM 51.8 °F - 21.2 °F 30% 30.41 in 10.0 mi ESE 5.8 mph - N/A   Clear
4:15 PM 51.8 °F - 23.0 °F 33% 30.40 in 10.0 mi SSE 6.9 mph - N/A   Clear
4:35 PM 51.8 °F - 21.2 °F 30% 30.40 in 10.0 mi ESE 3.5 mph - N/A   Clear
4:55 PM 51.8 °F - 21.2 °F 30% 30.40 in 10.0 mi SE 5.8 mph - N/A   Clear
5:15 PM 50.0 °F - 21.2 °F 32% 30.40 in 10.0 mi SE 5.8 mph - N/A   Clear
5:35 PM 48.2 °F - 21.2 °F 34% 30.40 in 10.0 mi ESE 5.8 mph - N/A   Clear
5:55 PM 46.4 °F 44.3 °F 21.2 °F 37% 30.40 in 10.0 mi ESE 4.6 mph - N/A   Clear
6:15 PM 48.2 °F - 19.4 °F 32% 30.40 in 10.0 mi ESE 3.5 mph - N/A   Clear
6:35 PM 46.4 °F - 19.4 °F 34% 30.40 in 10.0 mi Calm Calm - N/A   Clear
6:55 PM 46.4 °F - 19.4 °F 34% 30.40 in 10.0 mi Calm Calm - N/A   Clear
7:15 PM 46.4 °F - 19.4 °F 34% 30.40 in 10.0 mi Calm Calm - N/A   Clear
7:35 PM 44.6 °F - 19.4 °F 37% 30.40 in 10.0 mi Calm Calm - N/A   Clear
7:55 PM 44.6 °F - 19.4 °F 37% 30.40 in 10.0 mi Calm Calm - N/A   Clear
8:15 PM 41.0 °F 39.0 °F 21.2 °F 45% 30.40 in 10.0 mi East 3.5 mph - N/A   Clear
8:35 PM 42.8 °F 41.1 °F 21.2 °F 42% 30.40 in 10.0 mi ESE 3.5 mph - N/A   Clear
8:55 PM 42.8 °F 40.1 °F 21.2 °F 42% 30.40 in 10.0 mi ESE 4.6 mph - N/A   Clear
9:15 PM 42.8 °F 40.1 °F 21.2 °F 42% 30.40 in 10.0 mi ESE 4.6 mph - N/A   Clear
9:35 PM 39.2 °F 35.9 °F 24.8 °F 56% 30.40 in 10.0 mi ESE 4.6 mph - N/A   Clear
9:55 PM 41.0 °F 37.1 °F 21.2 °F 45% 30.40 in 10.0 mi East 5.8 mph - N/A   Clear
10:15 PM 42.8 °F 39.3 °F 21.2 °F 42% 30.40 in 10.0 mi ESE 5.8 mph - N/A   Clear
10:35 PM 41.0 °F 36.4 °F 21.2 °F 45% 30.39 in 10.0 mi SE 6.9 mph - N/A   Clear
10:55 PM 42.8 °F 38.6 °F 21.2 °F 42% 30.39 in 10.0 mi SE 6.9 mph - N/A   Clear
11:15 PM 42.8 °F 38.0 °F 19.4 °F 39% 30.38 in 10.0 mi SE 8.1 mph - N/A   Clear
11:35 PM 42.8 °F 38.0 °F 21.2 °F 42% 30.37 in 10.0 mi SE 8.1 mph - N/A   Clear
11:55 PM 42.8 °F 38.0 °F 19.4 °F 39% 30.37 in 10.0 mi SSE 8.1 mph - N/A   Clear